^^
Your Local Weather - Clay, NY Station Historical Data
Daily Summary for February 2, 2018 Units:  Metric    English   Both
« Previous Day
Next Day »
Daily Weekly Monthly Yearly Custom
  High: Low: Average:
Temperature: -4.5 °C -12 °C -9.9 °C
Dew Point: -9.1 °C -14.9 °C -13 °C
Humidity: 86% 63% 79%
Wind Speed: 11.3km/h 1.6km/h 5.3km/h
Wind Gust: 17.7km/h - -
Wind- - WNW
Pressure: 1026 hPa 1013.4 hPa -
Precipitation: 0 mm    
Historical Graphs
 
 
Tabular Data for February 2, 2018
Time Temperature Dew Point Pressure Wind Wind Speed Wind Gust Humidity Rainfall Rate (Hourly) solar
00:00 -4.6 °C -9.1 °C 1013.4 hPa NW 8 km/h 8 km/h 71% 0 mm 0 W/m2
00:06 -4.6 °C -9.4 °C 1013.8 hPa WNW 6.4 km/h 8 km/h 69% 0 mm 0 W/m2
00:12 -4.5 °C -9.7 °C 1013.8 hPa WNW 6.4 km/h 11.3 km/h 67% 0 mm 0 W/m2
00:18 -4.6 °C -9.8 °C 1013.4 hPa WNW 6.4 km/h 12.9 km/h 67% 0 mm 0 W/m2
00:24 -4.5 °C -9.7 °C 1013.8 hPa NW 6.4 km/h 8 km/h 67% 0 mm 0 W/m2
00:30 -4.6 °C -9.8 °C 1013.8 hPa West 6.4 km/h 9.7 km/h 67% 0 mm 0 W/m2
00:36 -4.6 °C -9.6 °C 1013.4 hPa WNW 6.4 km/h 9.7 km/h 68% 0 mm 0 W/m2
00:42 -4.7 °C -9.6 °C 1013.8 hPa WNW 6.4 km/h 8 km/h 69% 0 mm 0 W/m2
00:48 -4.8 °C -9.6 °C 1013.8 hPa NNW 8 km/h 14.5 km/h 69% 0 mm 0 W/m2
00:54 -4.9 °C -9.6 °C 1013.8 hPa NW 8 km/h 8 km/h 70% 0 mm 0 W/m2
01:00 -5 °C -9.6 °C 1013.8 hPa WNW 6.4 km/h 6.4 km/h 70% 0 mm 0 W/m2
01:06 -5.2 °C -9.8 °C 1013.8 hPa NW 8 km/h 11.3 km/h 70% 0 mm 0 W/m2
01:12 -5.4 °C -9.9 °C 1014.1 hPa NW 8 km/h 9.7 km/h 71% 0 mm 0 W/m2
01:18 -5.6 °C -9.8 °C 1014.1 hPa NNW 6.4 km/h 9.7 km/h 72% 0 mm 0 W/m2
01:24 -5.6 °C -9.8 °C 1014.1 hPa NW 4.8 km/h 11.3 km/h 72% 0 mm 0 W/m2
01:30 -5.7 °C -10.1 °C 1014.1 hPa NNW 8 km/h 8 km/h 71% 0 mm 0 W/m2
01:36 -5.8 °C -10.4 °C 1013.8 hPa NW 8 km/h 9.7 km/h 70% 0 mm 0 W/m2
01:42 -5.9 °C -10.5 °C 1014.1 hPa West 6.4 km/h 6.4 km/h 70% 0 mm 0 W/m2
01:48 -5.9 °C -10.5 °C 1014.4 hPa NW 6.4 km/h 9.7 km/h 70% 0 mm 0 W/m2
01:54 -5.9 °C -10.6 °C 1014.4 hPa NW 4.8 km/h 9.7 km/h 70% 0 mm 0 W/m2
02:00 -6 °C -10.8 °C 1014.4 hPa NNW 6.4 km/h 9.7 km/h 69% 0 mm 0 W/m2
02:06 -6 °C -10.8 °C 1014.4 hPa WNW 6.4 km/h 9.7 km/h 69% 0 mm 0 W/m2
02:12 -6.1 °C -10.8 °C 1014.4 hPa NNW 8 km/h 9.7 km/h 69% 0 mm 0 W/m2
02:18 -6.2 °C -10.9 °C 1014.8 hPa NW 8 km/h 11.3 km/h 69% 0 mm 0 W/m2
02:24 -6.2 °C -11.2 °C 1014.8 hPa NNW 8 km/h 12.9 km/h 68% 0 mm 0 W/m2
02:30 -6.3 °C -11.4 °C 1014.8 hPa WNW 6.4 km/h 6.4 km/h 67% 0 mm 0 W/m2
02:36 -6.4 °C -11.9 °C 1014.8 hPa NW 8 km/h 12.9 km/h 65% 0 mm 0 W/m2
02:42 -6.6 °C -12.1 °C 1015.1 hPa NNW 9.7 km/h 9.7 km/h 65% 0 mm 0 W/m2
02:48 -6.6 °C -12.3 °C 1015.1 hPa WNW 8 km/h 9.7 km/h 64% 0 mm 0 W/m2
02:54 -6.6 °C -12.3 °C 1014.8 hPa NNW 6.4 km/h 8 km/h 64% 0 mm 0 W/m2
03:00 -6.6 °C -12.3 °C 1014.8 hPa NW 4.8 km/h 4.8 km/h 64% 0 mm 0 W/m2
03:06 -6.7 °C -12.6 °C 1015.1 hPa NW 6.4 km/h 9.7 km/h 63% 0 mm 0 W/m2
03:12 -6.7 °C -12.6 °C 1015.1 hPa NW 6.4 km/h 8 km/h 63% 0 mm 0 W/m2
03:18 -6.8 °C -12.5 °C 1015.1 hPa NNW 6.4 km/h 8 km/h 64% 0 mm 0 W/m2
03:24 -6.9 °C -12.8 °C 1015.1 hPa NW 8 km/h 9.7 km/h 63% 0 mm 0 W/m2
03:30 -6.9 °C -12.6 °C 1015.1 hPa NNW 6.4 km/h 6.4 km/h 64% 0 mm 0 W/m2
03:36 -6.9 °C -12.8 °C 1015.1 hPa WNW 6.4 km/h 6.4 km/h 63% 0 mm 0 W/m2
03:42 -7 °C -12.9 °C 1015.5 hPa NNW 4.8 km/h 6.4 km/h 63% 0 mm 0 W/m2
03:48 -7.1 °C -12.6 °C 1015.5 hPa NW 6.4 km/h 11.3 km/h 65% 0 mm 0 W/m2
03:54 -7.2 °C -12.5 °C 1015.5 hPa NNW 6.4 km/h 8 km/h 66% 0 mm 0 W/m2
04:00 -7.3 °C -12.6 °C 1015.5 hPa North 6.4 km/h 11.3 km/h 66% 0 mm 0 W/m2
04:06 -7.3 °C -12.6 °C 1015.5 hPa WNW 6.4 km/h 11.3 km/h 66% 0 mm 0 W/m2
04:12 -7.4 °C -12.4 °C 1015.5 hPa NW 4.8 km/h 6.4 km/h 67% 0 mm 0 W/m2
04:18 -7.4 °C -12.7 °C 1015.5 hPa WNW 4.8 km/h 8 km/h 66% 0 mm 0 W/m2
04:24 -7.6 °C -12.6 °C 1015.5 hPa NW 3.2 km/h 6.4 km/h 67% 0 mm 0 W/m2
04:30 -7.6 °C -12.9 °C 1015.5 hPa NW 3.2 km/h 3.2 km/h 66% 0 mm 0 W/m2
04:36 -7.6 °C -12.9 °C 1015.5 hPa NNW 3.2 km/h 4.8 km/h 66% 0 mm 0 W/m2
04:42 -7.7 °C -12.7 °C 1015.5 hPa NNW 3.2 km/h 3.2 km/h 67% 0 mm 0 W/m2
04:48 -7.7 °C -12.7 °C 1015.5 hPa NNW 1.6 km/h 4.8 km/h 67% 0 mm 0 W/m2
04:54 -7.7 °C -12.6 °C 1015.5 hPa NNW 3.2 km/h 3.2 km/h 68% 0 mm 0 W/m2
05:00 -7.7 °C -12.4 °C 1015.5 hPa NW 1.6 km/h 4.8 km/h 69% 0 mm 0 W/m2
05:06 -7.7 °C -12.4 °C 1015.8 hPa NW 1.6 km/h 6.4 km/h 69% 0 mm 0 W/m2
05:12 -7.7 °C -12.1 °C 1015.8 hPa NW 3.2 km/h 3.2 km/h 71% 0 mm 0 W/m2
05:18 -7.9 °C -12.1 °C 1015.8 hPa WNW 3.2 km/h 6.4 km/h 72% 0 mm 0 W/m2
05:24 -7.9 °C -11.9 °C 1016.1 hPa WNW 3.2 km/h 3.2 km/h 73% 0 mm 0 W/m2
05:30 -7.9 °C -11.8 °C 1015.8 hPa WNW 3.2 km/h 3.2 km/h 74% 0 mm 0 W/m2
05:36 -7.9 °C -11.6 °C 1015.8 hPa WNW 1.6 km/h 3.2 km/h 75% 0 mm 0 W/m2
05:42 -8.1 °C -11.4 °C 1016.1 hPa WNW 1.6 km/h 1.6 km/h 77% 0 mm 0 W/m2
05:48 -8.1 °C -11.3 °C 1016.1 hPa WSW 1.6 km/h 3.2 km/h 78% 0 mm 0 W/m2
05:54 -8.1 °C -11.1 °C 1016.1 hPa WSW 1.6 km/h 4.8 km/h 79% 0 mm 0 W/m2
06:00 -8.2 °C -11 °C 1016.1 hPa WSW 1.6 km/h 3.2 km/h 80% 0 mm 0 W/m2
06:06 -8.2 °C -10.8 °C 1016.1 hPa WSW 1.6 km/h 4.8 km/h 81% 0 mm 0 W/m2
06:12 -8.2 °C -10.7 °C 1016.1 hPa WSW 3.2 km/h 3.2 km/h 82% 0 mm 0 W/m2
06:18 -8.2 °C -10.6 °C 1016.1 hPa WNW 3.2 km/h 3.2 km/h 83% 0 mm 0 W/m2
06:24 -8.2 °C -10.6 °C 1016.1 hPa WNW 1.6 km/h 3.2 km/h 83% 0 mm 0 W/m2
06:30 -8.2 °C -10.4 °C 1016.1 hPa West 1.6 km/h 6.4 km/h 84% 0 mm 0 W/m2
06:36 -8.2 °C -10.4 °C 1016.1 hPa NNW 1.6 km/h 6.4 km/h 84% 0 mm 0 W/m2
06:42 -8.3 °C -10.5 °C 1016.1 hPa WSW 3.2 km/h 3.2 km/h 84% 0 mm 0 W/m2
06:48 -8.2 °C -10.3 °C 1016.1 hPa WSW 1.6 km/h 4.8 km/h 85% 0 mm 0 W/m2
06:54 -8.3 °C -10.3 °C 1016.5 hPa WNW 1.6 km/h 3.2 km/h 85% 0 mm 0 W/m2
07:00 -8.2 °C -10.3 °C 1016.5 hPa WNW 1.6 km/h 1.6 km/h 85% 0 mm 0 W/m2
07:06 -8.2 °C -10.3 °C 1016.5 hPa WNW 1.6 km/h 1.6 km/h 85% 0 mm 0 W/m2
07:12 -8.3 °C -10.2 °C 1016.5 hPa WNW 1.6 km/h 3.2 km/h 86% 0 mm 0 W/m2
07:18 -8.3 °C -10.2 °C 1016.5 hPa WNW 1.6 km/h 6.4 km/h 86% 0 mm 0 W/m2
07:24 -8.3 °C -10.3 °C 1016.5 hPa WNW 1.6 km/h 3.2 km/h 86% 0 mm 0 W/m2
07:30 -8.4 °C -10.3 °C 1016.5 hPa WNW 1.6 km/h 3.2 km/h 86% 0 mm 0 W/m2
07:36 -8.5 °C -10.4 °C 1016.5 hPa NNW 1.6 km/h 4.8 km/h 86% 0 mm 0 W/m2
07:42 -8.6 °C -10.6 °C 1016.8 hPa NNW 3.2 km/h 4.8 km/h 86% 0 mm 5 W/m2
07:48 -8.7 °C -10.7 °C 1016.8 hPa NW 4.8 km/h 4.8 km/h 86% 0 mm 9 W/m2
07:54 -8.7 °C -10.7 °C 1016.8 hPa West 3.2 km/h 6.4 km/h 86% 0 mm 12 W/m2
08:00 -8.7 °C -10.7 °C 1016.8 hPa WNW 3.2 km/h 3.2 km/h 86% 0 mm 16 W/m2
08:06 -8.7 °C -10.7 °C 1016.8 hPa WNW 3.2 km/h 6.4 km/h 86% 0 mm 18 W/m2
08:12 -8.7 °C -10.7 °C 1016.8 hPa WNW 4.8 km/h 6.4 km/h 86% 0 mm 12 W/m2
08:18 -9.2 °C -11.1 °C 1017.2 hPa North 6.4 km/h 14.5 km/h 86% 0 mm 18 W/m2
08:24 -9.7 °C -11.8 °C 1017.2 hPa NW 9.7 km/h 9.7 km/h 85% 0 mm 21 W/m2
08:30 -10.1 °C -12.2 °C 1017.8 hPa NW 9.7 km/h 11.3 km/h 85% 0 mm 26 W/m2
08:36 -10.3 °C -12.3 °C 1017.8 hPa North 8 km/h 11.3 km/h 85% 0 mm 39 W/m2
08:42 -10.5 °C -12.7 °C 1017.8 hPa NW 8 km/h 8 km/h 84% 0 mm 42 W/m2
08:48 -10.6 °C -12.8 °C 1018.2 hPa NW 8 km/h 12.9 km/h 84% 0 mm 49 W/m2
08:54 -10.9 °C -13.3 °C 1018.2 hPa NW 9.7 km/h 14.5 km/h 83% 0 mm 46 W/m2
09:00 -11.3 °C -13.7 °C 1018.2 hPa NNW 8 km/h 8 km/h 82% 0 mm 39 W/m2
09:06 -11.6 °C -14 °C 1018.5 hPa NW 11.3 km/h 16.1 km/h 82% 0 mm 97 W/m2
09:12 -11.6 °C -14.1 °C 1018.8 hPa NW 9.7 km/h 17.7 km/h 82% 0 mm 206 W/m2
09:18 -11.5 °C -13.9 °C 1019.2 hPa North 9.7 km/h 17.7 km/h 82% 0 mm 271 W/m2
09:24 -11.3 °C -13.9 °C 1019.2 hPa NNW 8 km/h 9.7 km/h 81% 0 mm 188 W/m2
09:30 -11.3 °C -14.1 °C 1019.2 hPa NW 8 km/h 14.5 km/h 80% 0 mm 181 W/m2
09:36 -11.3 °C -13.9 °C 1019.5 hPa NNW 6.4 km/h 14.5 km/h 81% 0 mm 204 W/m2
09:42 -11.3 °C -13.9 °C 1019.5 hPa North 6.4 km/h 11.3 km/h 81% 0 mm 163 W/m2
09:48 -11.4 °C -13.8 °C 1019.9 hPa NW 8 km/h 11.3 km/h 82% 0 mm 165 W/m2
09:54 -11.4 °C -13.8 °C 1019.9 hPa North 6.4 km/h 12.9 km/h 83% 0 mm 188 W/m2
10:00 -11.3 °C -13.7 °C 1019.9 hPa North 6.4 km/h 6.4 km/h 83% 0 mm 193 W/m2
10:06 -11.2 °C -13.4 °C 1019.9 hPa West 8 km/h 9.7 km/h 84% 0 mm 269 W/m2
10:12 -11.1 °C -13.3 °C 1019.9 hPa NNE 8 km/h 12.9 km/h 84% 0 mm 163 W/m2
10:18 -11.2 °C -13.6 °C 1020.2 hPa WNW 8 km/h 14.5 km/h 83% 0 mm 151 W/m2
10:24 -11.1 °C -13.4 °C 1020.2 hPa WNW 8 km/h 12.9 km/h 83% 0 mm 221 W/m2
10:30 -10.7 °C -12.8 °C 1020.2 hPa NNW 6.4 km/h 11.3 km/h 84% 0 mm 237 W/m2
10:36 -10.9 °C -13.3 °C 1020.5 hPa NNW 6.4 km/h 16.1 km/h 83% 0 mm 169 W/m2
10:42 -11.2 °C -13.6 °C 1020.5 hPa NNE 8 km/h 11.3 km/h 83% 0 mm 294 W/m2
10:48 -11.3 °C -13.8 °C 1020.5 hPa NNE 9.7 km/h 11.3 km/h 82% 0 mm 181 W/m2
10:54 -11.2 °C -13.6 °C 1020.5 hPa North 8 km/h 9.7 km/h 82% 0 mm 244 W/m2
11:00 -11.3 °C -13.7 °C 1020.5 hPa NW 8 km/h 11.3 km/h 82% 0 mm 253 W/m2
11:06 -11.5 °C -13.9 °C 1020.9 hPa NNW 11.3 km/h 11.3 km/h 82% 0 mm 163 W/m2
11:12 -11.6 °C -14 °C 1020.9 hPa NW 9.7 km/h 9.7 km/h 82% 0 mm 255 W/m2
11:18 -11.4 °C -13.8 °C 1020.9 hPa NW 6.4 km/h 9.7 km/h 83% 0 mm 181 W/m2
11:24 -11.4 °C -13.8 °C 1020.9 hPa NW 8 km/h 11.3 km/h 82% 0 mm 195 W/m2
11:30 -11.5 °C -13.9 °C 1021.2 hPa NW 8 km/h 8 km/h 82% 0 mm 262 W/m2
11:36 -11.5 °C -14.1 °C 1021.2 hPa WNW 6.4 km/h 9.7 km/h 81% 0 mm 422 W/m2
11:42 -11.4 °C -14.2 °C 1021.2 hPa WNW 8 km/h 9.7 km/h 80% 0 mm 278 W/m2
11:48 -11.6 °C -14.4 °C 1021.2 hPa NNW 8 km/h 11.3 km/h 80% 0 mm 309 W/m2
11:54 -11.7 °C -14.5 °C 1021.2 hPa NNW 8 km/h 11.3 km/h 80% 0 mm 199 W/m2
12:00 -11.9 °C -14.7 °C 1021.2 hPa NW 6.4 km/h 11.3 km/h 80% 0 mm 260 W/m2
12:06 -11.8 °C -14.6 °C 1021.2 hPa NW 6.4 km/h 11.3 km/h 80% 0 mm 246 W/m2
12:12 -12 °C -14.9 °C 1021.2 hPa West 8 km/h 9.7 km/h 79% 0 mm 216 W/m2
12:18 -11.7 °C -14.5 °C 1021.2 hPa NW 6.4 km/h 9.7 km/h 80% 0 mm 320 W/m2
12:24 -11.6 °C -14.4 °C 1021.2 hPa WNW 6.4 km/h 8 km/h 79% 0 mm 258 W/m2
12:30 -11.5 °C -14.6 °C 1021.2 hPa WNW 6.4 km/h 6.4 km/h 78% 0 mm 306 W/m2
12:36 -11.4 °C -14.7 °C 1021.6 hPa NW 6.4 km/h 16.1 km/h 77% 0 mm 281 W/m2
12:42 -11.4 °C -14.8 °C 1021.6 hPa NW 6.4 km/h 6.4 km/h 76% 0 mm 339 W/m2
12:48 -11.3 °C -14.9 °C 1021.6 hPa NNW 6.4 km/h 11.3 km/h 75% 0 mm 357 W/m2
12:54 -11.4 °C -14.8 °C 1021.6 hPa NNW 6.4 km/h 14.5 km/h 76% 0 mm 288 W/m2
13:00 -11.1 °C -14.3 °C 1021.6 hPa NW 4.8 km/h 4.8 km/h 77% 0 mm 241 W/m2
13:12 -11.3 °C -14.4 °C 1021.6 hPa NW 6.4 km/h 6.4 km/h 78% 0 mm 223 W/m2
13:18 -11.5 °C -14.4 °C 1021.6 hPa NW 8 km/h 14.5 km/h 79% 0 mm 190 W/m2
13:24 -11.6 °C -14.4 °C 1021.6 hPa WNW 8 km/h 8 km/h 79% 0 mm 179 W/m2
13:30 -11.6 °C -14.3 °C 1021.6 hPa WNW 6.4 km/h 6.4 km/h 80% 0 mm 137 W/m2
13:36 -11.7 °C -14.3 °C 1021.6 hPa WNW 6.4 km/h 6.4 km/h 81% 0 mm 116 W/m2
13:42 -11.7 °C -14.2 °C 1021.9 hPa NW 6.4 km/h 6.4 km/h 82% 0 mm 172 W/m2
13:48 -11.7 °C -14 °C 1021.9 hPa NW 8 km/h 8 km/h 83% 0 mm 193 W/m2
13:54 -11.6 °C -13.9 °C 1021.9 hPa NW 6.4 km/h 11.3 km/h 83% 0 mm 142 W/m2
14:00 -11.4 °C -13.6 °C 1021.9 hPa WNW 4.8 km/h 6.4 km/h 84% 0 mm 134 W/m2
14:06 -11.4 °C -13.6 °C 1021.9 hPa NW 6.4 km/h 12.9 km/h 84% 0 mm 199 W/m2
14:12 -11.4 °C -13.8 °C 1021.6 hPa West 9.7 km/h 12.9 km/h 82% 0 mm 156 W/m2
14:18 -11.4 °C -14.2 °C 1021.9 hPa NW 9.7 km/h 14.5 km/h 80% 0 mm 144 W/m2
14:24 -11.4 °C -14.2 °C 1021.9 hPa WNW 8 km/h 9.7 km/h 80% 0 mm 118 W/m2
14:30 -11.3 °C -14.3 °C 1022.2 hPa WNW 8 km/h 8 km/h 79% 0 mm 123 W/m2
14:36 -11.4 °C -14.3 °C 1022.2 hPa WNW 9.7 km/h 11.3 km/h 79% 0 mm 105 W/m2
14:42 -11.4 °C -14.3 °C 1022.2 hPa WNW 8 km/h 9.7 km/h 79% 0 mm 97 W/m2
14:48 -11.4 °C -14.2 °C 1022.2 hPa WNW 6.4 km/h 9.7 km/h 80% 0 mm 81 W/m2
14:54 -11.4 °C -14.2 °C 1022.6 hPa NW 6.4 km/h 6.4 km/h 80% 0 mm 121 W/m2
15:00 -11.4 °C -14.2 °C 1022.6 hPa NW 8 km/h 8 km/h 80% 0 mm 121 W/m2
15:06 -11.4 °C -14.2 °C 1022.6 hPa WNW 8 km/h 9.7 km/h 80% 0 mm 113 W/m2
15:12 -11.4 °C -14.3 °C 1022.6 hPa NW 6.4 km/h 8 km/h 79% 0 mm 98 W/m2
15:18 -11.6 °C -14.3 °C 1022.6 hPa WNW 6.4 km/h 11.3 km/h 80% 0 mm 93 W/m2
15:24 -11.7 °C -14.4 °C 1022.9 hPa WNW 8 km/h 8 km/h 80% 0 mm 95 W/m2
15:30 -11.7 °C -14.3 °C 1022.9 hPa WNW 6.4 km/h 6.4 km/h 81% 0 mm 109 W/m2
15:36 -11.6 °C -14.2 °C 1022.9 hPa WNW 8 km/h 8 km/h 81% 0 mm 100 W/m2
15:42 -11.6 °C -14.4 °C 1022.9 hPa WNW 8 km/h 11.3 km/h 79% 0 mm 70 W/m2
15:48 -11.6 °C -14.7 °C 1022.9 hPa NW 8 km/h 11.3 km/h 78% 0 mm 63 W/m2
15:54 -11.6 °C -14.7 °C 1023.2 hPa WNW 8 km/h 8 km/h 78% 0 mm 49 W/m2
16:00 -11.6 °C -14.6 °C 1023.2 hPa WNW 6.4 km/h 6.4 km/h 78% 0 mm 44 W/m2
16:06 -11.6 °C -14.6 °C 1023.2 hPa NW 6.4 km/h 6.4 km/h 78% 0 mm 42 W/m2
16:12 -11.6 °C -14.8 °C 1023.2 hPa WNW 6.4 km/h 9.7 km/h 77% 0 mm 33 W/m2
16:18 -11.6 °C -14.7 °C 1023.2 hPa WNW 6.4 km/h 9.7 km/h 78% 0 mm 35 W/m2
16:24 -11.6 °C -14.7 °C 1023.6 hPa WNW 8 km/h 11.3 km/h 78% 0 mm 28 W/m2
16:30 -11.6 °C -14.8 °C 1023.6 hPa NW 8 km/h 12.9 km/h 77% 0 mm 28 W/m2
16:36 -11.6 °C -14.8 °C 1023.6 hPa NW 6.4 km/h 12.9 km/h 77% 0 mm 28 W/m2
16:42 -11.5 °C -14.9 °C 1023.6 hPa WNW 6.4 km/h 8 km/h 76% 0 mm 26 W/m2
16:48 -11.5 °C -14.9 °C 1023.6 hPa WNW 4.8 km/h 8 km/h 76% 0 mm 18 W/m2
16:54 -11.6 °C -14.8 °C 1023.9 hPa WNW 4.8 km/h 9.7 km/h 77% 0 mm 12 W/m2
17:00 -11.7 °C -14.7 °C 1023.9 hPa WNW 6.4 km/h 6.4 km/h 78% 0 mm 9 W/m2
17:06 -11.7 °C -14.6 °C 1023.9 hPa WNW 6.4 km/h 8 km/h 79% 0 mm 5 W/m2
17:12 -11.8 °C -14.4 °C 1023.9 hPa WNW 6.4 km/h 6.4 km/h 81% 0 mm 0 W/m2
17:18 -11.8 °C -14.4 °C 1023.9 hPa WNW 4.8 km/h 8 km/h 81% 0 mm 0 W/m2
17:24 -11.8 °C -14.2 °C 1023.9 hPa West 4.8 km/h 6.4 km/h 82% 0 mm 0 W/m2
17:30 -11.7 °C -14.2 °C 1023.9 hPa WNW 4.8 km/h 6.4 km/h 82% 0 mm 0 W/m2
17:36 -11.7 °C -14.2 °C 1023.9 hPa West 4.8 km/h 6.4 km/h 82% 0 mm 0 W/m2
17:42 -11.7 °C -14.3 °C 1023.9 hPa West 4.8 km/h 17.7 km/h 81% 0 mm 0 W/m2
17:48 -11.6 °C -14.2 °C 1024.3 hPa WNW 4.8 km/h 17.7 km/h 81% 0 mm 0 W/m2
17:54 -11.6 °C -14.2 °C 1024.3 hPa West 4.8 km/h 6.4 km/h 81% 0 mm 0 W/m2
18:00 -11.6 °C -14.2 °C 1024.3 hPa West 4.8 km/h 11.3 km/h 81% 0 mm 0 W/m2
18:06 -11.6 °C -14.2 °C 1024.6 hPa WNW 4.8 km/h 11.3 km/h 81% 0 mm 0 W/m2
18:12 -11.6 °C -14.1 °C 1024.6 hPa West 4.8 km/h 4.8 km/h 82% 0 mm 0 W/m2
18:18 -11.7 °C -14.1 °C 1024.6 hPa SW 4.8 km/h 6.4 km/h 82% 0 mm 0 W/m2
18:24 -11.7 °C -14.1 °C 1024.6 hPa WSW 3.2 km/h 4.8 km/h 82% 0 mm 0 W/m2
18:30 -11.7 °C -14.2 °C 1024.6 hPa WSW 4.8 km/h 4.8 km/h 82% 0 mm 0 W/m2
18:36 -11.8 °C -14.3 °C 1024.6 hPa WSW 4.8 km/h 6.4 km/h 82% 0 mm 0 W/m2
18:42 -11.8 °C -14.3 °C 1024.9 hPa WSW 4.8 km/h 4.8 km/h 82% 0 mm 0 W/m2
18:48 -11.8 °C -14.1 °C 1024.9 hPa WSW 4.8 km/h 4.8 km/h 83% 0 mm 0 W/m2
18:54 -11.8 °C -14.1 °C 1024.9 hPa West 3.2 km/h 4.8 km/h 83% 0 mm 0 W/m2
19:00 -11.8 °C -14.1 °C 1024.9 hPa West 4.8 km/h 6.4 km/h 83% 0 mm 0 W/m2
19:06 -11.8 °C -14.1 °C 1024.9 hPa WSW 4.8 km/h 6.4 km/h 83% 0 mm 0 W/m2
19:12 -11.9 °C -14.2 °C 1024.9 hPa SW 4.8 km/h 6.4 km/h 83% 0 mm 0 W/m2
19:18 -11.8 °C -14.1 °C 1025.3 hPa WSW 6.4 km/h 9.7 km/h 83% 0 mm 0 W/m2
19:24 -11.8 °C -14.1 °C 1025.3 hPa NW 4.8 km/h 6.4 km/h 83% 0 mm 0 W/m2
19:30 -11.8 °C -14.1 °C 1025.3 hPa West 3.2 km/h 6.4 km/h 83% 0 mm 0 W/m2
19:36 -11.8 °C -14.1 °C 1025.6 hPa West 3.2 km/h 6.4 km/h 83% 0 mm 0 W/m2
19:42 -11.8 °C -14.1 °C 1025.6 hPa WNW 3.2 km/h 4.8 km/h 83% 0 mm 0 W/m2
19:48 -11.8 °C -14 °C 1025.6 hPa WNW 3.2 km/h 4.8 km/h 84% 0 mm 0 W/m2
19:54 -11.8 °C -13.9 °C 1025.6 hPa West 3.2 km/h 4.8 km/h 84% 0 mm 0 W/m2
20:00 -11.7 °C -13.9 °C 1025.6 hPa WSW 4.8 km/h 4.8 km/h 84% 0 mm 0 W/m2
20:06 -11.7 °C -13.9 °C 1025.6 hPa WSW 4.8 km/h 4.8 km/h 84% 0 mm 0 W/m2
20:12 -11.7 °C -14 °C 1025.6 hPa WSW 3.2 km/h 4.8 km/h 83% 0 mm 0 W/m2
20:18 -11.7 °C -14 °C 1025.6 hPa WSW 1.6 km/h 4.8 km/h 83% 0 mm 0 W/m2
20:24 -11.7 °C -13.9 °C 1025.6 hPa WSW 1.6 km/h 3.2 km/h 84% 0 mm 0 W/m2
20:30 -11.7 °C -14 °C 1025.6 hPa West 1.6 km/h 1.6 km/h 83% 0 mm 0 W/m2
20:36 -11.8 °C -14.1 °C 1025.6 hPa SW 1.6 km/h 4.8 km/h 83% 0 mm 0 W/m2
20:42 -11.8 °C -14.1 °C 1026 hPa WSW 3.2 km/h 3.2 km/h 83% 0 mm 0 W/m2
20:48 -11.8 °C -14.1 °C 1026 hPa WSW 3.2 km/h 4.8 km/h 83% 0 mm 0 W/m2
20:54 -11.8 °C -14.1 °C 1026 hPa WSW 1.6 km/h 3.2 km/h 83% 0 mm 0 W/m2
21:00 -11.8 °C -14.1 °C 1026 hPa WSW 1.6 km/h 1.6 km/h 83% 0 mm 0 W/m2
21:06 -11.7 °C -14 °C 1026 hPa West 1.6 km/h 3.2 km/h 83% 0 mm 0 W/m2
21:12 -11.7 °C -14 °C 1026 hPa West 1.6 km/h 1.6 km/h 83% 0 mm 0 W/m2
21:18 -11.6 °C -13.9 °C 1026 hPa WSW 1.6 km/h 6.4 km/h 83% 0 mm 0 W/m2
21:24 -11.6 °C -13.8 °C 1026 hPa WSW 1.6 km/h 3.2 km/h 84% 0 mm 0 W/m2
21:30 -11.6 °C -13.7 °C 1026 hPa SW 1.6 km/h 1.6 km/h 84% 0 mm 0 W/m2
21:36 -11.6 °C -13.7 °C 1025.6 hPa SW 1.6 km/h 3.2 km/h 84% 0 mm 0 W/m2
21:42 -11.6 °C -13.8 °C 1025.6 hPa WSW 3.2 km/h 6.4 km/h 84% 0 mm 0 W/m2
21:48 -11.6 °C -13.8 °C 1025.6 hPa WSW 3.2 km/h 6.4 km/h 84% 0 mm 0 W/m2
21:54 -11.7 °C -13.7 °C 1025.6 hPa West 3.2 km/h 6.4 km/h 85% 0 mm 0 W/m2
22:00 -11.6 °C -13.6 °C 1025.6 hPa SW 3.2 km/h 6.4 km/h 85% 0 mm 0 W/m2
22:06 -11.6 °C -13.6 °C 1026 hPa SW 1.6 km/h 6.4 km/h 85% 0 mm 0 W/m2
22:12 -11.6 °C -13.6 °C 1026 hPa WSW 3.2 km/h 3.2 km/h 85% 0 mm 0 W/m2
22:18 -11.6 °C -13.6 °C 1026 hPa WSW 4.8 km/h 8 km/h 85% 0 mm 0 W/m2
22:24 -11.6 °C -13.6 °C 1026 hPa WSW 3.2 km/h 8 km/h 85% 0 mm 0 W/m2
22:30 -11.6 °C -13.6 °C 1026 hPa WSW 3.2 km/h 3.2 km/h 85% 0 mm 0 W/m2
22:36 -11.6 °C -13.4 °C 1025.6 hPa WSW 1.6 km/h 3.2 km/h 86% 0 mm 0 W/m2
22:42 -11.5 °C -13.4 °C 1025.6 hPa WSW 1.6 km/h 4.8 km/h 86% 0 mm 0 W/m2
22:48 -11.6 °C -13.4 °C 1025.6 hPa SW 3.2 km/h 4.8 km/h 86% 0 mm 0 W/m2
22:54 -11.6 °C -13.4 °C 1025.6 hPa West 3.2 km/h 4.8 km/h 86% 0 mm 0 W/m2
23:00 -11.6 °C -13.4 °C 1025.6 hPa SW 3.2 km/h 4.8 km/h 86% 0 mm 0 W/m2
23:06 -11.6 °C -13.5 °C 1025.6 hPa SW 3.2 km/h 4.8 km/h 86% 0 mm 0 W/m2
23:12 -11.6 °C -13.5 °C 1025.6 hPa SW 1.6 km/h 3.2 km/h 86% 0 mm 0 W/m2
23:18 -11.6 °C -13.5 °C 1025.6 hPa SW 1.6 km/h 3.2 km/h 86% 0 mm 0 W/m2
23:24 -11.6 °C -13.5 °C 1025.6 hPa SW 1.6 km/h 3.2 km/h 86% 0 mm 0 W/m2
23:30 -11.6 °C -13.5 °C 1025.3 hPa SW 1.6 km/h 1.6 km/h 86% 0 mm 0 W/m2
23:36 -11.6 °C -13.5 °C 1025.3 hPa SW 1.6 km/h 1.6 km/h 86% 0 mm 0 W/m2
23:42 -11.6 °C -13.5 °C 1025.3 hPa SW 1.6 km/h 1.6 km/h 86% 0 mm 0 W/m2
23:48 -11.6 °C -13.6 °C 1025.3 hPa West 1.6 km/h 3.2 km/h 85% 0 mm 0 W/m2
23:54 -11.6 °C -13.6 °C 1024.9 hPa West 1.6 km/h 6.4 km/h 85% 0 mm 0 W/m2
Country Meadow, Clay, NY, USA
Compliments of Weather Underground - 2 mb